Other Surface Observations
Issued by NWS

Current Version | Previous Version | Text Only | Print | Product List | Glossary On
Versions: 1 2 3 4 5 6 7 8 9 10 11 12 13 14 15 16 17 18 19 20 21 22 23 24 25 26 27 28 29 30 31 32 33 34 35 36 37 38 39 40 41 42 43 44 45 46 47 48 49 50
000
SXUS52 KTAE 202305
OSOTAE
OSOTAE
North Florida/South Alabama/Southwest Georgia Weather Roundup
National Weather Service Tallahassee Florida
600 PM EST SAT DEC 20 2014

Note: "fair" indicates few or no clouds below 12,000 feet with no
significant weather and/or obstructions to visibility.

!FLZ017-115-028-034-025-210000
...North Florida...

CITY           SKY/WX    TMP DP  RH WIND       PRES   REMARKS
TALLAHASSEE    MOCLDY    60  50  69 N6        30.09R
APALACHICOLA   CLOUDY    62  53  72 NE8       30.06R
PERRY          MOCLDY    62  51  68 NE3       30.08S
CROSS CITY       N/A     66  58  75 CALM      30.07R
JACKSONVILLE   MOCLDY    58  55  90 NE9       30.11R
$$

!FLZ112-006-005-002-011-210000
...Florida Panhandle...

CITY           SKY/WX    TMP DP  RH WIND       PRES   REMARKS
MARIANNA       LGT RAIN  55  55 100 N3        30.11S
BONIFAY        NOT AVBL
PANAMA CITY NW CLOUDY    55  52  89 N9        30.08R
TYNDALL AFB    LGT RAIN  56  51  85 NE7       30.08R
TYND DRONE APT LGT RAIN  55  54  94 NE10      30.06R
DE FUNIAK SPR  CLOUDY    52  51  96 NE8       30.10S
EGLIN AFB      CLOUDY    54  52  92 N6        30.09R
DESTIN         CLOUDY    55  53  93 NE6       30.09R
HURLBURT       CLOUDY    54  50  87 NE8       30.08R
CRESTVIEW      CLOUDY    54  51  90 CALM      30.12R
PENSACOLA      CLOUDY    51  50  96 N8        30.09R
$$

!ALZ063-066-210000
...South Alabama...

CITY           SKY/WX    TMP DP  RH WIND       PRES   REMARKS
DOTHAN         CLOUDY    54  50  87 NE7       30.15S
OZARK CAIRNS   CLOUDY    55  49  81 NE8       30.12R
FT RUCKER HELI CLOUDY    54  49  83 NE5       30.12R
RUCKER HELI 3  MOCLDY    53  49  87 N6        30.14R
RUCKER HELI 2  CLOUDY    54  49  83 N8        30.10R
FLORALA APT    CLOUDY    54  49  83 N7        30.13R
ANDALUSIA      CLOUDY    57  48  72 NE6       30.12S
TROY           CLOUDY    51  48  89 NE8       30.15R FOG
EUFALA         CLOUDY    52  50  93 CALM      30.14R FOG
MOBILE         CLOUDY    49  47  93 N10       30.12S WCI  45
$$

!GAZ120>161-210000
...Southwest and South Central Georgia...

CITY           SKY/WX    TMP DP  RH WIND       PRES   REMARKS
THOMASVILLE    CLOUDY    55  55 100 E3        30.12S
BAINBRIDGE     MOCLDY    59  54  82 N3        30.12R
MOODY AFB      LGT RAIN  56  49  78 NE6       30.12R
VALDOSTA       CLOUDY    58  50  75 NE6       30.12R
MOULTRIE       CLOUDY    55  52  88 CALM      30.12F
BLAKELY        CLOUDY    59  54  82 NE3       30.13R
ALBANY         CLOUDY    56  51  84 N3        30.15R
TIFTON         LGT RAIN  55  50  85 CALM      30.13R
FITZGERALD     CLOUDY    56  52  85 CALM      30.16R
CORDELE        CLOUDY    56  50  80 NE3       30.14S
AMERICUS       CLOUDY    52  50  93 NE5       30.16R
HOMERVILLE     CLOUDY    57  52  82 CALM      30.13R
$$

!GMZ750-755-770-775-210000
...Coastal and Buoy Obs...

STATION/POSITION TIME  TEMP    WIND        PRES    VSBY  WAVE
                       AIR SEA DIR/SP/G                  HT/PER
                 (UTC) (F)     (DEG/KT/KT) (MB)    (MI)  (FT/S)
KEATON BEACH     2300   64      40/  4/  6 1018.1F
CEDAR KEY        2200   65     350/  2/  3 1018.4R
C TOWER          2300   62      60/ 17/ 19 1017.3R
APALACHICOLA BUO 2200   70 71  190/ 12/ 14 1016.4R         3/ 4
PANAMA CITY BUOY NOT AVBL
MOBILE BUOY      2300   65 74   50/ 17/ 21 1017.1R         6/ 7
ORANGE BCH AL BU 2200   57 69   30/ 16/ 19 1017.4R         4/ 6
$$



USA.gov is the U.S. government's official web portal to all federal, state and local government web resources and services.